This is the latest recevied weather packets stored in our database for station/object W9QL-13. If no packets are shown the sender has not sent any weather packets the latest 10 day(s).
| Time | Temp. | Humidity | Pressure | Rain* | Wind** | Luminosity | Snow |
|---|---|---|---|---|---|---|---|
| 1778190255 | 13.89° C | 59% | 1008.3 hPa | 0 mm | - | - | - |
| 1778189925 | 13.89° C | 57% | 1008.4 hPa | 0 mm | - | - | - |
| 1778189625 | 13.89° C | 56% | 1008.4 hPa | 0 mm | - | - | - |
| 1778189325 | 13.89° C | 56% | 1008.3 hPa | 0 mm | - | - | - |
| 1778189025 | 13.89° C | 57% | 1008.2 hPa | 0 mm | - | - | - |
| 1778188695 | 13.33° C | 60% | 1008.2 hPa | 0 mm | - | - | - |
| 1778188396 | 12.78° C | 64% | 1008.2 hPa | 0 mm | - | - | - |
| 1778188065 | 12.22° C | 68% | 1008.2 hPa | 0 mm | - | - | - |
| 1778187735 | 11.67° C | 72% | 1008.4 hPa | 0 mm | - | - | - |
| 1778187435 | 11.11° C | 75% | 1008.6 hPa | 0 mm | - | - | - |
| 1778187135 | 11.11° C | 75% | 1008.5 hPa | 0 mm | - | - | - |
| 1778186805 | 10.56° C | 76% | 1008.5 hPa | 0 mm | - | - | - |
| 1778186505 | 10.56° C | 74% | 1008.5 hPa | 0 mm | - | - | - |
| 1778186205 | 10.56° C | 80% | 1008.8 hPa | 0 mm | - | - | - |
| 1778185905 | 9.44° C | 79% | 1008.9 hPa | 0 mm | - | - | - |
| 1778185605 | 8.89° C | 81% | 1009.6 hPa | 0 mm | - | - | - |
| 1778185306 | 8.89° C | 81% | 1009.4 hPa | 0 mm | - | - | - |
| 1778184978 | 8.89° C | 79% | 1009.2 hPa | 0 mm | - | - | - |
| 1778184645 | 8.89° C | 76% | 1009.5 hPa | 0 mm | - | - | - |
| 1778184315 | 8.89° C | 75% | 1009.6 hPa | 0 mm | - | - | - |
| 1778184015 | 8.89° C | 72% | 1009.8 hPa | 0 mm | - | - | - |
| 1778183685 | 8.89° C | 71% | 1010 hPa | 0 mm | - | - | - |
| 1778183355 | 8.89° C | 67% | 1009.9 hPa | 0 mm | - | - | - |
| 1778183025 | 8.89° C | 67% | 1010 hPa | 0 mm | - | - | - |
| 1778182725 | 8.89° C | 68% | 1010.1 hPa | 0 mm | - | - | - |
* Rain latest hour (hover to see other rain measurements)
** Current wind speed in m/s (hover to see current wind gust speed)